Theta_e
306 305 305 304 302 299 301 302 301 300 299 299 299 299 303 303 302 311 310 311 311 312 312 312 311 309 310 311 313 309 309 309 309 312 317 321 320 318 317 315 314 314 317 314 313 316 314 309 309 311 312 311 311 310
305 305 305 303 301 302 303 304 304 302 301 300 299 300 303 303 306 310 309 310 311 311 312 311 310 310 308 309 310 308 311 311 311 313 317 322 320 318 318 318 312 313 313 315 315 316 311 309 311 311 311 311 310 309
304 302 301 301 301 302 302 303 303 303 301 301 300 301 303 304 306 308 309 310 309 309 310 310 310 311 311 307 307 310 310 312 312 314 317 319 319 316 317 314 313 311 311 311 310 311 310 310 310 309 308 309 309 309
303 301 302 302 300 299 301 303 303 302 302 303 301 301 303 303 303 305 308 310 308 309 311 311 311 310 310 310 307 308 310 310 311 312 317 320 322 313 313 313 312 310 309 309 309 310 310 310 309 309 308 307 307 307
302 302 302 302 300 298 301 302 303 302 302 304 302 301 303 304 303 304 306 308 307 309 311 311 309 308 309 307 307 307 307 310 312 313 315 320 313 312 311 310 311 310 310 308 310 310 311 311 310 308 308 307 306 304
303 303 303 303 300 297 300 302 302 302 302 302 301 300 303 304 304 303 305 307 307 308 307 314 308 306 306 306 306 306 308 310 312 314 315 312 311 313 314 313 312 311 310 310 310 309 309 308 308 308 307 306 304 303
303 303 302 302 300 300 298 299 302 302 301 301 301 300 302 304 304 306 305 307 309 308 307 311 308 305 306 307 307 308 308 310 311 312 312 313 310 310 315 315 311 310 310 311 309 308 307 306 307 307 306 305 303 302
303 303 303 301 300 298 297 299 300 299 300 301 301 300 303 305 304 305 305 305 306 307 307 311 310 305 305 307 308 308 309 309 309 312 309 311 309 309 309 312 312 310 309 309 308 307 307 307 306 305 305 303 301 301
301 301 302 301 301 299 298 298 298 298 300 300 300 301 304 304 304 303 304 305 306 306 309 307 307 312 305 308 307 307 309 312 308 310 310 310 311 308 309 309 310 309 308 308 307 306 306 305 305 304 303 302 301 301
301 301 301 300 301 301 299 298 298 298 300 300 300 303 303 303 304 305 306 307 303 304 304 310 310 307 307 308 310 309 309 313 310 309 307 307 309 310 310 309 309 309 307 307 306 305 305 305 304 303 303 302 301 301
301 301 301 301 301 301 299 298 297 298 300 301 302 302 302 303 304 302 300 302 303 307 307 307 309 305 307 310 309 309 310 307 311 307 308 309 308 308 308 308 308 307 306 306 305 305 305 305 304 303 303 302 301 300
301 299 297 298 301 301 300 298 297 299 301 301 302 302 300 301 300 301 303 305 307 308 308 307 307 306 306 307 307 305 309 306 311 305 306 308 308 306 305 306 306 306 305 305 305 304 304 304 303 303 302 301 300 301
298 298 298 300 301 301 299 298 297 300 301 302 302 300 299 299 303 304 307 308 310 307 307 306 305 304 304 307 307 307 308 308 304 306 307 307 307 304 304 305 306 305 304 304 303 303 303 303 302 302 301 301 300 300
299 300 300 300 301 301 299 297 298 301 301 301 298 301 301 303 302 305 306 307 306 305 306 306 305 307 305 307 307 307 306 304 306 308 308 307 305 303 304 304 305 304 304 303 302 302 302 302 302 301 301 300 299 299
300 301 301 301 301 301 299 297 299 301 301 299 299 304 302 303 305 304 305 307 305 305 306 306 307 306 306 304 308 303 303 306 307 307 308 307 304 303 303 304 304 304 303 303 302 302 302 301 300 300 299 299 298 298
301 302 301 301 301 300 299 298 301 300 301 299 299 303 305 304 305 304 306 305 305 305 306 307 307 308 306 306 304 305 306 307 307 306 307 305 303 302 303 303 303 303 302 302 301 301 300 300 299 299 299 298 298 298
301 302 301 301 300 299 298 299 301 300 300 298 299 302 305 305 306 303 305 305 305 306 306 309 305 306 306 306 307 306 307 309 309 306 305 303 302 303 303 302 302 301 301 300 300 299 299 298 297 297 299 299 298 298
302 301 301 300 299 299 301 300 299 300 298 298 303 304 304 304 306 304 305 304 305 305 308 310 305 305 306 306 307 306 308 307 306 304 303 302 302 302 302 301 301 300 300 299 298 298 297 297 298 298 298 298 298 298
301 301 301 299 299 299 300 299 299 299 300 300 302 304 303 303 304 304 305 304 304 306 307 307 306 309 307 307 308 306 305 305 302 303 302 302 302 301 301 300 300 300 299 299 298 297 297 298 298 298 298 298 297 297
300 300 299 299 299 300 298 296 298 299 300 301 302 302 303 303 303 303 303 303 303 304 305 303 308 311 309 307 309 306 304 303 302 301 301 301 301 300 300 299 299 299 298 298 298 298 298 298 298 298 298 297 296 296
300 300 300 300 299 300 298 297 298 300 300 301 301 301 301 301 302 302 302 301 302 305 307 306 305 305 305 305 306 305 303 302 301 302 300 300 300 299 299 299 299 298 298 297 297 298 299 299 298 298 297 296 295 294
300 300 299 299 299 298 298 298 299 299 300 300 301 301 301 301 301 301 301 301 304 305 306 304 303 303 302 304 304 303 301 301 301 301 300 300 299 299 299 299 298 298 297 298 298 298 299 298 298 297 295 295 293 292
300 299 298 299 297 297 297 299 300 300 301 301 301 302 301 301 301 301 301 302 305 305 304 303 302 301 302 302 301 301 301 301 300 300 299 299 299 299 299 298 298 297 298 299 299 298 298 298 297 295 294 293 292 292
298 299 298 297 298 299 297 297 299 301 301 302 302 303 302 302 300 301 303 303 304 303 303 301 300 300 299 300 300 300 300 300 300 299 299 299 299 298 298 298 297 298 298 298 298 298 298 297 295 295 293 292 291 291
298 297 298 298 297 298 300 300 301 302 303 303 302 301 300 300 302 302 303 302 302 301 301 300 299 300 300 300 300 300 300 300 299 299 299 299 299 298 297 298 298 298 298 298 298 298 297 295 294 294 292 291 291 290
298 296 299 298 299 300 300 302 301 303 302 302 301 300 300 301 302 303 301 302 302 301 301 300 300 299 299 300 300 300 299 299 300 299 299 299 299 298 297 298 298 298 298 298 298 297 296 295 294 293 292 291 290 290
297 297 297 298 301 300 301 301 303 303 302 302 300 299 301 303 304 303 303 303 302 302 303 302 301 302 301 300 299 300 299 299 299 299 299 298 297 297 297 298 298 298 298 298 297 297 296 295 294 292 291 290 290 289
298 297 299 298 300 301 302 303 303 303 301 301 300 300 303 304 304 300 301 302 302 302 303 301 300 302 302 301 300 299 299 299 298 298 298 297 297 298 298 298 298 298 298 298 297 296 295 295 293 292 291 290 289 289
297 297 298 298 300 301 302 302 302 302 301 300 302 302 299 296 296 296 299 301 302 302 302 300 299 300 299 299 299 299 299 299 299 298 297 297 298 298 298 298 298 298 297 297 296 295 295 293 292 291 291 290 288 288
299 299 300 298 299 299 297 297 298 299 299 300 298 295 293 292 293 295 298 301 302 302 301 301 301 300 299 299 299 298 299 299 299 299 297 297 298 298 298 298 298 297 297 296 296 295 293 292 292 291 289 288 288 288
297 297 297 296 296 296 295 296 297 297 298 297 297 296 293 293 293 295 299 300 301 300 300 300 299 300 300 299 300 298 298 298 299 298 297 298 298 298 298 298 297 297 296 296 295 294 293 292 291 290 289 288 288 287
298 297 297 296 296 296 297 297 297 297 297 297 296 295 295 296 294 293 296 298 299 300 300 300 300 300 300 300 299 298 299 299 299 297 298 298 298 298 297 297 297 296 296 295 295 294 292 291 290 289 288 287 287 287
297 297 297 297 298 298 297 298 298 297 296 296 296 296 296 296 294 293 294 295 297 298 299 300 300 300 300 300 299 299 299 299 298 298 298 298 298 297 297 297 297 296 296 295 295 293 292 291 290 289 288 287 287 287
Wind_Speed
32 30 29 28 24 23 21 20 17 16 17 17 20 18 16 17 19 19 17 15 22 14 28 23 14 8 12 8 2 8 5 5 4 3 2 3 2 1 1 3 4 5 4 3 2 2 6 14 5 4 4 6 6 3
32 32 30 27 26 24 23 22 19 17 18 20 20 19 17 16 18 20 19 15 22 16 10 16 18 16 16 13 3 14 5 2 9 3 2 3 1 1 1 2 2 2 2 2 6 4 6 18 2 8 7 6 5 7
34 33 31 30 28 26 25 23 21 18 19 20 21 19 20 18 15 21 16 12 14 15 24 34 29 24 19 19 15 4 5 3 2 3 2 0 2 3 3 4 5 3 4 1 3 3 9 13 14 7 5 4 6 7
36 33 30 29 28 26 25 23 22 20 21 20 21 20 22 21 20 24 20 19 18 10 7 14 14 26 29 20 18 18 8 5 4 3 1 2 2 1 1 1 1 3 8 6 5 6 7 10 14 13 10 7 10 10
31 29 30 30 27 26 25 24 23 22 22 20 20 20 21 19 16 26 15 20 24 18 5 4 8 16 18 17 17 18 12 6 5 3 2 3 2 1 1 2 4 10 6 5 4 2 5 5 9 11 13 11 12 12
35 32 29 28 28 27 26 25 24 23 22 21 19 19 21 19 18 12 10 16 21 22 6 3 3 5 11 11 11 11 9 9 6 3 1 3 2 1 2 3 5 15 19 14 2 6 8 8 9 11 12 12 13 11
36 33 31 27 27 26 26 26 24 23 22 22 20 19 19 19 16 22 7 4 19 28 6 3 3 4 9 10 9 9 12 5 4 3 2 5 3 3 2 4 6 12 12 14 8 9 5 8 7 11 12 14 13 11
33 32 31 28 27 26 25 25 26 24 22 20 18 18 18 19 15 26 31 10 6 20 8 2 2 4 14 8 6 9 7 6 4 2 2 2 4 3 4 9 14 11 10 12 12 9 4 12 11 14 14 14 13 10
32 31 30 29 28 27 25 24 24 23 21 18 15 15 17 20 15 20 21 20 17 14 4 4 5 4 12 5 6 5 7 2 3 2 3 3 3 5 8 11 9 15 12 11 12 10 10 12 15 14 14 13 11 9
31 32 32 31 29 28 27 26 23 21 19 15 14 10 8 9 14 10 11 14 8 10 9 4 9 3 10 6 4 6 3 2 2 2 9 2 4 17 16 13 9 10 12 13 19 15 16 16 16 14 13 11 9 6
32 33 32 31 32 29 30 27 24 20 17 17 14 11 7 16 16 9 6 7 9 4 10 10 11 6 11 4 3 4 3 4 3 3 4 4 4 5 12 13 14 11 13 15 11 12 15 15 15 13 11 9 9 7
32 35 34 33 33 33 32 29 27 25 18 17 12 13 13 8 6 5 4 5 7 6 14 14 11 11 9 6 4 4 3 2 3 10 2 4 3 12 9 15 14 17 17 17 14 16 14 13 13 11 10 8 7 7
33 35 35 35 36 35 33 30 29 28 23 19 11 7 7 8 6 6 8 5 4 5 16 19 6 10 6 6 5 2 4 3 12 2 4 5 11 12 15 18 19 19 19 18 18 17 17 17 14 12 10 8 6 2
34 35 36 37 38 36 34 32 29 31 24 10 9 7 5 5 7 6 7 6 10 16 23 28 11 6 5 4 3 5 2 4 3 3 6 4 19 19 20 20 24 23 20 20 18 17 15 13 11 9 7 5 2 3
36 36 38 40 40 36 36 32 33 37 18 7 7 6 9 11 12 19 16 21 18 29 31 16 9 6 2 3 2 5 2 4 6 5 4 17 25 24 24 25 24 25 22 19 17 16 14 11 9 7 5 2 3 4
34 34 41 42 39 37 35 32 37 32 13 7 9 4 9 9 9 15 19 15 25 34 27 8 5 4 4 5 4 7 8 7 5 4 18 26 26 25 26 26 25 23 22 21 18 17 15 12 9 6 3 2 3 4
36 31 41 40 38 35 37 36 24 13 11 7 6 19 12 16 15 16 15 25 32 33 6 4 6 7 4 3 4 5 6 4 15 22 25 28 30 29 28 28 28 26 24 21 18 14 11 7 5 5 7 4 3 4
33 36 36 40 39 37 38 31 10 16 8 9 5 11 20 15 19 16 17 25 25 24 17 5 9 4 6 7 4 4 7 18 22 24 27 29 30 30 30 30 28 25 22 19 15 12 8 6 7 5 2 0 2 5
33 40 34 43 46 36 14 17 15 6 7 8 18 19 17 9 12 18 20 32 17 24 14 9 4 4 4 5 4 20 26 23 28 27 29 29 31 32 31 29 27 24 21 17 12 10 9 8 5 3 2 1 2 5
33 35 35 46 48 17 7 5 19 5 4 9 15 19 18 14 12 17 18 24 18 14 3 3 4 4 6 12 11 25 27 34 39 34 30 29 30 31 30 30 26 22 18 16 13 11 10 8 6 4 1 1 3 4
32 35 43 49 34 12 9 8 8 10 7 6 15 16 7 15 14 13 15 20 9 5 3 8 9 11 10 13 17 25 32 37 37 39 44 37 31 32 30 26 23 19 17 16 15 13 9 7 6 3 1 2 4 3
26 44 40 36 9 10 4 9 7 17 12 9 17 9 5 4 8 13 14 10 6 12 7 10 15 16 17 19 22 26 31 30 28 32 34 36 35 33 29 26 22 19 17 16 14 16 12 9 6 3 1 3 3 4
41 37 24 10 5 7 6 22 7 11 5 9 13 5 3 3 10 19 7 10 7 12 15 14 17 19 21 23 25 27 28 29 32 34 37 33 32 31 26 23 20 20 20 18 15 14 11 8 5 2 1 2 4 4
26 17 8 8 7 4 8 5 7 6 7 6 5 4 6 4 17 4 4 5 11 19 20 22 26 26 23 25 31 29 29 29 32 35 35 34 31 25 21 20 20 18 17 18 15 12 10 8 5 3 2 3 2 3
6 6 8 4 8 7 5 5 5 4 5 4 5 3 4 9 3 4 4 8 22 26 29 31 30 31 32 27 28 29 27 31 38 37 33 31 28 25 23 22 21 19 18 17 16 13 11 9 6 3 1 1 1 2
5 6 7 6 5 4 6 7 6 5 5 4 3 6 7 3 4 5 5 20 25 33 37 38 38 32 27 30 39 35 33 33 36 36 31 27 23 23 28 28 25 21 18 15 14 13 11 9 6 4 2 0 2 3
5 5 7 7 8 11 5 4 11 5 4 5 5 6 5 5 6 4 8 30 35 43 42 40 41 39 38 35 32 32 32 33 34 31 26 21 19 20 20 22 23 20 19 17 15 13 11 9 7 6 5 3 0 1
2 8 8 8 4 7 6 4 4 4 4 9 10 6 11 7 4 7 8 21 26 41 45 40 37 34 33 36 39 39 37 35 31 27 24 22 20 20 20 18 17 17 17 16 14 13 10 7 7 6 6 5 1 2
4 7 11 2 2 2 3 4 5 3 11 13 4 3 3 4 5 7 15 22 26 36 43 40 34 33 35 36 40 39 39 39 36 32 30 30 28 25 21 20 20 20 19 18 15 12 9 8 7 7 6 4 3 3
3 7 4 3 3 1 2 3 4 11 10 12 8 7 5 5 6 10 21 25 30 36 42 46 44 42 42 41 40 39 35 32 28 26 31 34 31 27 25 23 20 19 20 19 17 15 12 10 9 8 6 5 5 5
12 5 5 3 2 3 3 9 14 16 9 7 7 8 8 7 7 11 21 24 27 33 37 42 43 42 43 43 41 43 39 33 27 24 26 28 26 25 24 21 20 21 21 19 16 13 12 12 10 9 7 6 6 6
5 3 4 4 2 4 7 5 5 5 3 4 4 4 6 5 4 5 14 22 25 32 35 40 42 41 38 36 37 37 38 35 30 27 25 25 24 23 22 22 22 22 21 18 16 13 12 11 11 9 8 7 7 6
9 13 13 6 3 3 3 4 4 3 5 3 4 3 3 3 4 5 12 18 22 26 32 34 36 37 34 34 35 33 31 30 28 26 24 23 21 21 22 21 21 21 19 17 15 14 14 13 12 10 9 7 7 6
Wind_Direction
237 238 241 245 245 249 248 249 249 246 248 248 253 252 255 255 247 245 257 241 217 226 252 286 282 294 308 289 216 122 134 213 175 253 218 206 239 138 327 73 166 166 152 201 225 153 267 133 117 197 169 127 146 140
234 235 239 243 244 245 243 246 248 246 244 247 249 254 250 258 247 236 247 253 221 222 251 262 269 275 278 263 285 179 315 168 201 211 204 53 136 105 246 200 14 231 202 184 160 216 144 177 125 158 153 158 157 162
237 240 240 243 240 239 241 242 245 243 242 247 247 247 241 243 236 233 251 244 218 234 262 258 258 277 272 253 236 210 221 286 319 303 5 98 242 142 181 232 150 240 120 196 48 197 179 198 216 221 179 150 170 182
238 240 240 242 241 239 237 238 240 240 240 246 248 247 248 257 265 238 233 240 218 250 228 251 238 235 250 246 234 224 236 233 244 196 171 135 205 43 314 21 343 95 130 199 242 243 180 220 219 217 202 190 178 172
231 233 235 239 242 240 234 235 239 238 239 244 247 244 246 257 268 235 245 249 221 234 316 242 231 238 243 233 225 219 222 213 199 204 186 211 112 135 59 1 249 182 191 171 220 199 174 100 196 198 195 186 176 166
229 230 232 237 242 238 231 234 235 237 240 243 248 244 241 251 259 259 256 237 226 223 262 261 241 226 219 209 208 199 191 215 233 245 105 89 177 172 145 246 256 220 217 226 310 143 144 133 151 175 184 173 175 172
231 228 229 233 233 231 233 230 231 235 238 240 245 242 240 244 256 206 224 235 198 202 236 256 227 202 163 159 174 180 187 211 220 165 229 171 177 179 194 232 219 232 236 203 201 167 124 156 168 167 169 168 167 166
225 224 226 228 228 228 227 227 230 232 235 238 240 237 235 243 254 232 231 247 212 177 199 237 147 166 174 193 159 163 174 181 203 136 164 231 133 210 249 250 254 271 205 182 183 178 121 165 160 160 167 169 163 170
220 222 223 225 227 225 222 225 228 229 228 232 232 232 228 246 224 228 245 222 210 224 204 200 167 186 180 168 126 145 181 157 172 216 173 161 194 225 223 231 238 207 182 177 172 174 156 157 158 165 163 170 171 181
220 222 223 223 225 224 220 221 223 223 223 219 210 195 208 200 204 199 209 183 208 219 219 225 167 150 171 164 153 124 187 154 158 193 141 199 255 247 240 229 205 188 185 172 163 167 165 161 163 167 172 181 182 187
223 223 223 222 222 221 219 216 216 216 208 196 201 205 193 174 173 180 223 180 181 232 204 196 174 139 173 176 140 190 181 156 183 151 172 225 255 219 206 206 195 174 175 175 174 171 167 167 166 169 168 175 186 210
227 224 226 222 219 217 215 213 211 206 197 196 189 155 174 191 169 179 203 212 187 218 184 166 147 138 159 155 119 188 140 61 192 143 161 250 235 151 159 152 156 162 158 159 155 151 152 156 158 161 168 165 189 221
228 228 224 220 214 213 210 209 204 202 194 180 188 169 192 200 196 201 192 203 190 133 163 148 127 148 144 176 109 123 135 172 125 173 224 229 153 161 152 157 150 154 159 148 146 150 154 149 156 160 159 182 198 213
226 221 220 213 209 208 205 202 195 194 183 192 168 199 219 179 223 195 221 176 137 149 155 153 128 143 137 146 148 125 92 122 159 228 232 198 171 162 159 157 154 156 161 153 151 156 153 150 153 155 171 182 201 266
223 217 212 206 205 204 200 198 192 188 185 191 185 216 209 224 220 219 229 173 158 166 160 147 101 115 117 110 163 102 101 201 211 222 219 147 162 161 158 160 157 157 158 155 155 151 145 154 148 156 172 218 286 304
210 202 203 200 199 197 195 190 188 183 199 210 217 223 231 203 240 237 219 154 156 159 159 150 131 136 184 146 144 203 156 213 217 207 148 153 156 158 160 159 158 156 154 155 154 150 151 155 166 170 208 251 280 334
188 187 193 192 192 189 185 178 180 174 194 211 220 218 251 205 207 220 172 163 167 160 169 137 139 188 106 157 204 183 205 202 143 143 153 158 156 155 153 149 147 150 152 152 152 153 161 172 171 174 169 234 320 341
184 183 189 184 177 174 177 192 184 178 194 200 197 201 224 218 223 203 195 178 168 185 167 171 127 165 179 179 227 193 138 129 149 149 149 154 153 152 151 147 150 152 151 150 156 163 166 163 158 169 189 136 350 351
180 184 179 176 174 169 168 184 203 201 177 173 209 216 211 244 233 201 196 178 188 189 149 143 138 184 198 210 167 163 161 158 145 146 147 151 153 154 152 154 151 152 152 157 162 160 160 165 167 168 135 50 342 337
178 181 174 175 173 168 173 178 193 186 191 189 176 173 182 214 213 189 178 182 183 171 161 168 206 204 188 184 185 177 164 158 145 137 144 151 156 154 156 155 153 153 152 156 162 162 161 164 162 162 153 333 336 331
172 169 169 170 173 185 175 162 157 165 174 177 157 152 175 166 170 168 168 179 192 217 205 196 172 179 177 172 177 177 171 169 160 159 153 152 155 158 157 155 159 162 165 160 160 155 158 162 160 166 138 300 332 339
154 166 156 170 168 162 189 172 161 154 161 173 158 160 166 165 156 176 167 190 236 205 174 176 185 179 164 161 166 171 163 163 160 154 155 151 151 157 158 164 161 163 162 162 162 162 171 168 176 177 255 335 19 1
158 164 158 151 132 159 186 169 166 158 144 170 156 149 178 195 161 153 192 206 203 199 193 188 178 169 164 157 157 156 164 165 159 159 155 157 162 163 164 167 171 166 160 158 168 173 169 169 181 189 49 47 57 64
156 150 152 147 145 164 172 151 178 158 131 163 170 170 150 140 157 200 200 191 176 178 176 168 163 153 146 150 147 155 164 167 160 158 165 163 158 162 169 167 167 168 170 170 174 170 169 172 172 159 98 66 49 78
131 152 146 133 166 173 141 155 180 171 157 142 145 153 159 161 170 179 198 172 175 176 174 172 168 164 154 150 150 157 164 169 163 161 167 170 163 160 162 164 166 173 174 175 172 173 172 173 167 153 119 100 66 76
176 173 162 154 174 148 156 158 199 159 131 130 134 127 167 151 166 211 195 176 181 179 179 178 173 167 164 166 160 162 169 174 170 165 167 177 181 181 173 170 172 174 175 176 178 177 176 177 167 163 185 10 75 124
164 175 196 194 154 131 107 227 167 151 149 152 158 164 163 189 211 215 175 180 182 189 188 185 184 182 174 167 166 168 173 174 174 170 169 175 182 184 183 179 179 177 175 177 180 181 182 178 170 175 189 212 230 80
144 170 166 182 180 135 130 134 189 174 160 154 149 182 177 190 189 163 165 177 185 189 188 184 183 183 176 178 175 168 170 169 169 169 166 165 168 171 176 178 175 173 176 179 180 178 183 178 173 180 190 203 199 135
207 185 128 130 189 148 125 156 199 178 150 169 151 135 139 110 157 164 159 162 179 182 176 173 174 177 175 173 175 177 176 175 173 168 171 168 167 170 175 174 172 174 178 176 175 179 181 177 176 184 190 189 178 153
162 145 97 87 73 83 76 74 126 146 146 151 127 113 93 87 95 133 152 157 170 177 176 180 177 181 177 175 175 177 182 184 190 190 182 181 179 175 174 178 179 177 177 179 178 177 176 177 180 178 180 161 148 142
145 129 87 74 94 30 114 123 131 125 115 89 100 107 115 115 101 131 155 157 168 169 173 174 176 181 179 179 178 177 178 185 189 195 195 184 179 178 180 181 179 179 179 179 178 178 173 173 175 176 176 162 158 147
120 136 135 116 113 110 116 78 70 62 60 71 79 89 114 102 89 141 161 164 170 176 180 183 182 181 187 186 183 182 185 178 181 186 183 178 176 179 180 180 179 180 179 176 175 175 175 177 178 180 177 167 172 160
87 90 103 103 115 123 134 118 85 95 45 66 57 63 75 101 121 137 158 170 176 184 185 187 189 187 184 182 183 185 185 181 175 172 171 173 174 174 177 179 180 180 179 178 176 176 178 180 185 183 181 173 166 153